Location: Barcelona
(41.3830°N, 2.1830°E)
Time: 08:46:06
(UTC+02:00)

ISS - Pass Details

Date: 24 July 2017
Orbit: 400 x 408 km, 51.6° (Epoch: 21 July)

Event Time Altitude Azimuth Distance (km) Brightness Sun altitude
Rises 00:56:30 0° 282° (WNW) 2,308 0.4 -27.1°
Reaches altitude 10° 00:59:07 10° 305° (NW) 1,451 -0.4 -27.2°
Maximum altitude 01:01:18 17° 347° (NNW) 1,123 -0.8 -27.4°
Drops below altitude 10° 01:03:29 10° 29° (NNE) 1,454 -0.5 -27.5°
Sets 01:06:06 0° 52° (NE) 2,315 0.3 -27.6°
